Retour au catalogue

DELTA 1 DEB

ActifPO
NORAD 21364·DEBRIS·🇺🇸 United States

Lancé Jun 12, 1975 depuis Vandenberg Space Force Base

Loading…

Prochains Passages (prochaines 24 heures)

TLE

FraisSource: Space-Track

Époque: Sep 14, 2026, 02:34 UTC

1 21364U 75052CJ  26257.10735500  .00000579  00000-0  18250-2 0  9997
2 21364  99.6816 198.7460 0253875  90.9024  26.7806 12.97435398668916

Suivez DELTA 1 DEB en temps réel avec AllMySat

Download on the App Store